📊 Raw Sensor Data
Showing records 43501 to 43525 of 85,019 total
| ID | Distance (ft) | Battery V | Battery A | Int Temp (°F) | Int Humid (%) | Ext Temp (°F) | Solar V | RSSI | SNR | Time Stamp |
|---|---|---|---|---|---|---|---|---|---|---|
| 41531 | 16.0 | 3.92 | 0 | 92 | 44 | 82 | 5.10 | -69 | 7 | 05/24/2025 03:45 PM |
| 41530 | 16.0 | 3.92 | 0 | 92 | 43 | 86 | 5.10 | -68 | 7 | 05/24/2025 03:30 PM |
| 41529 | 16.0 | 3.92 | 0 | 92 | 43 | 84 | 5.10 | -68 | 7 | 05/24/2025 03:15 PM |
| 41528 | 16.0 | 4.03 | 0 | 92 | 41 | 86 | 5.10 | -69 | 8 | 05/24/2025 03:00 PM |
| 41527 | 16.0 | 4.06 | 0 | 91 | 41 | 86 | 5.10 | -68 | 8 | 05/24/2025 02:45 PM |
| 41526 | 16.0 | 3.92 | 0 | 89 | 41 | 84 | 5.10 | -69 | 8 | 05/24/2025 02:30 PM |
| 41525 | 16.0 | 3.92 | 0 | 88 | 41 | 84 | 5.10 | -69 | 8 | 05/24/2025 02:15 PM |
| 41524 | 16.0 | 4.11 | 0 | 85 | 42 | 78 | 5.10 | -68 | 7 | 05/24/2025 02:00 PM |
| 41523 | 16.0 | 3.92 | 0 | 85 | 41 | 78 | 5.10 | -69 | 8 | 05/24/2025 01:45 PM |
| 41522 | 16.0 | 3.92 | 0 | 84 | 42 | 80 | 5.10 | -69 | 7 | 05/24/2025 01:15 PM |
| 41521 | 16.0 | 3.92 | 0 | 82 | 42 | 76 | 5.10 | -69 | 7 | 05/24/2025 01:00 PM |
| 41520 | 16.0 | 3.92 | 0 | 82 | 42 | 78 | 5.10 | -68 | 7 | 05/24/2025 12:45 PM |
| 41519 | 16.0 | 3.92 | 0 | 81 | 42 | 77 | 5.10 | -68 | 7 | 05/24/2025 12:30 PM |
| 41518 | 16.0 | 3.92 | 0 | 78 | 43 | 77 | 5.10 | -69 | 8 | 05/24/2025 12:15 PM |
| 41517 | 16.1 | 3.92 | 0 | 79 | 42 | 75 | 5.10 | -68 | 7 | 05/24/2025 12:00 PM |
| 41516 | 16.0 | 3.92 | 0 | 78 | 42 | 77 | 5.10 | -67 | 8 | 05/24/2025 11:45 AM |
| 41515 | 16.1 | 3.99 | 0 | 77 | 42 | 79 | 5.10 | -69 | 8 | 05/24/2025 11:30 AM |
| 41514 | 16.1 | 3.92 | 0 | 75 | 42 | 78 | 5.10 | -69 | 7 | 05/24/2025 11:00 AM |
| 41513 | 16.1 | 3.92 | 0 | 75 | 42 | 73 | 5.10 | -68 | 7 | 05/24/2025 10:45 AM |
| 41512 | 16.1 | 3.92 | 0 | 73 | 42 | 73 | 5.10 | -69 | 7 | 05/24/2025 10:30 AM |
| 41511 | 16.1 | 3.92 | 0 | 72 | 42 | 77 | 5.10 | -68 | 7 | 05/24/2025 10:15 AM |
| 41510 | 16.1 | 3.92 | 0 | 71 | 42 | 73 | 5.10 | -68 | 8 | 05/24/2025 10:00 AM |
| 41509 | 16.1 | 4.12 | 0 | 69 | 42 | 69 | 5.10 | -68 | 7 | 05/24/2025 09:45 AM |
| 41508 | 16.1 | 3.93 | 0 | 69 | 42 | 73 | 5.10 | -69 | 8 | 05/24/2025 09:30 AM |
| 41507 | 16.1 | 3.93 | 0 | 67 | 42 | 72 | 5.10 | -69 | 8 | 05/24/2025 09:15 AM |